Miami International Airport
KMIA : now visible

Airfield :











YOU CAN JOIN US ON...

 
LOGIN :

Register | Disclaimer

   EN    FR    IT 

 









Legend :    VFR   Marginal VFR   IFR   Intensive IFR   Very Intensive IFR
Visi :
Ceiling :
>= 8 km
>= 3000ft
5 to 8 km
1000 to 3000 ft
1500m to 5 km
500 to 1000 ft
800 to 1500m
200 to 500 ft
< 800m
< 200 ft
Symbols :   Thunderstorms  Fog  Heavy snow  Heavy precipitations  Wind > 20 kt






- Airport Elevation : 8 ft
- IATA code : MIA


KMIA - Miami International

CURRENT METAR :
  • 272153Z 05010KT 10SM SCT037 29/22 A3001 RMK AO2 SLP162 T02940217 $

EXPIRED METARs :
  • 272053Z 06010KT 10SM SCT038 30/22 A3000 RMK AO2 SLP158 T03000217 56013 $
  • 271953Z 05010KT 10SM SCT040 SCT250 29/21 A3001 RMK AO2 SLP161 T02940211 $

TAF KMIA
Valid from the 27 at 21:00 until the 29 at 00:00 UTC


272051Z 2721/2824 06010KT P6SM SCT035 SCT250
FM280600 06005KT P6SM SCT030
FM281300 06010KT P6SM SCT030
FM281600 06014KT P6SM SCT030
KZMA FIR / North America



MET'MAP, your aeronautical weather chart ! - Copyright ORBIFLY December 2007 - Disclaimer

ORBIFLY MET'MAP TEAM :

Programming & Development : Alexandra Zaïnal
Concept & original design : Baudouin d'Aumeries
Assistance for programming : Marc-Olivier Méhu
Technical & hardware support : Manuel Goepfert

Contact : metmap@orbifly.com




SOURCES & CREDITS :

   NOAA       Earth
Advisory